sat.trackr.live / text

‹ back to catalog

ORBCOMM FM27

NORAD 25481 · 1998-053G

PAYLOAD ACTIVE UNKNOWN

§ Identity

Operator
Country
ORB
Launch date
1998-09-23
Launch site
ERAS
Launch vehicle
Mass (kg)
RCS (m²)
0.66

Purposes: comms

External: N2YO · Heavens-Above · Gunter

§ Orbital elements

Epoch: 2026-05-25T03:21:54.268416Z

Period
100.06 min
Inclination
45.0051°
Eccentricity
0.0001366
Mean motion
14.39087448 rev/d
Perigee alt
760.5 km
Apogee alt
762.5 km
Semi-major
7,139.7 km
B*
2.9138e-4
RAAN
84.8130°
Arg perigee
322.2048°
Mean anomaly
37.8705°
Rev number
44,691

§ Raw data

ORBCOMM FM271 25481U 98053G   26145.14021144  .00000766  00000+0  29138-3 0  99942 25481  45.0051  84.8130 0001366 322.2048  37.8705 14.39087448446910

JSON: /api/v1/satellites/25481 · /tle

For live sub-satellite position, see the globe view (requires WebGL).

§ Visibility from observer

Set your observer location to see the next 7 days of passes ≥ 10°. The values pass through the URL so the page stays shareable.

No JS? Fill the form by hand. The geolocation button needs JavaScript.